Theta_e
324 323 323 324 325 323 321 322 323 321 318 318 318 317 318 320 322 324 324 325 324 324 325 327 327 328 330 332 333 334 333 332 333 333 333 332 331 331 333 335 338 342 343 342 342 341 342 346 347 345 342 340 339 338 337 336 335 334 333 333 333 332 331 330 330 330 331 333 333 332 332 333 334 335
324 324 324 324 323 321 321 323 322 319 318 316 315 316 317 317 318 320 322 323 323 324 325 327 327 327 328 330 330 332 333 333 334 335 335 333 331 331 332 334 337 341 343 343 343 342 342 345 346 345 343 341 338 338 338 337 335 334 334 334 334 334 333 332 330 330 330 331 331 332 332 333 334 335
326 326 325 323 323 322 322 324 322 319 317 316 315 316 317 318 318 318 321 322 322 322 324 325 326 327 327 328 329 331 332 333 334 335 335 334 333 333 333 335 338 341 343 343 342 342 342 344 343 344 344 343 340 338 337 336 335 333 333 333 333 334 333 333 332 330 330 330 330 332 333 334 334 334
328 327 325 324 323 322 323 323 322 319 318 317 316 316 317 317 318 318 320 321 321 320 322 323 324 325 326 327 328 330 331 332 333 333 332 332 333 333 333 335 339 340 341 342 341 342 342 342 342 343 344 344 342 338 335 334 334 333 333 333 333 333 333 333 332 331 330 330 331 332 333 334 334 335
329 328 326 325 323 323 323 324 322 319 318 317 316 316 316 316 317 318 318 318 318 318 319 320 321 323 324 326 328 329 331 332 332 333 332 332 333 333 331 332 337 340 340 340 340 340 340 340 341 343 344 344 343 339 334 333 334 334 333 333 333 334 334 333 333 331 331 330 331 332 333 334 335 336
330 329 327 326 325 324 323 324 323 320 318 317 316 316 316 316 317 317 317 317 317 317 317 318 319 320 321 324 326 328 331 332 332 332 333 333 333 333 332 331 333 336 337 338 339 340 340 340 341 342 342 343 343 339 335 333 334 334 333 333 333 334 335 335 335 333 332 331 332 333 334 336 336 336
330 330 329 328 327 326 325 324 323 321 318 317 317 317 318 317 317 317 317 317 317 317 317 318 318 319 320 322 324 327 329 332 333 332 332 333 333 333 333 333 333 332 332 334 336 338 339 340 340 341 341 341 342 340 336 335 334 334 334 334 334 334 335 336 337 335 333 332 332 333 335 336 336 336
328 330 330 329 328 327 326 325 324 322 319 318 318 319 319 318 317 317 317 317 317 317 318 319 320 320 320 322 324 326 329 332 334 333 332 333 333 333 333 334 332 331 331 334 336 337 338 338 338 339 338 339 342 342 339 337 335 335 335 336 335 335 335 336 337 336 335 333 333 334 336 336 336 337
327 330 330 330 329 328 327 326 325 323 320 318 319 320 320 319 318 318 317 317 317 318 319 320 321 321 321 322 324 327 330 333 335 335 334 334 334 334 333 332 331 328 328 333 337 337 336 337 337 337 336 337 340 343 342 339 336 336 336 337 337 336 336 337 336 335 334 333 334 335 336 336 336 338
326 328 329 329 329 328 328 326 326 325 322 320 320 320 320 320 319 318 317 317 317 318 319 319 320 321 322 322 323 327 330 332 334 335 335 335 336 335 334 332 331 329 328 332 336 337 336 337 339 339 338 338 339 341 343 341 338 336 336 337 337 337 337 336 336 335 335 334 335 337 336 336 337 338
322 323 324 326 327 328 327 327 326 326 325 323 321 320 319 319 318 318 317 317 317 318 318 319 320 321 322 322 323 325 329 332 334 334 335 336 336 335 334 332 331 331 331 333 336 335 335 338 341 340 339 339 338 340 342 341 338 336 336 337 337 337 337 337 336 336 336 336 337 337 336 337 337 337
321 321 321 323 325 326 327 327 327 326 326 325 322 320 319 319 319 319 318 317 317 317 318 319 320 321 322 322 323 323 326 330 333 334 334 335 335 335 335 334 334 334 335 336 337 337 335 337 340 340 338 338 338 340 341 341 338 336 336 336 337 337 337 337 337 337 337 337 337 337 337 337 337 336
321 321 321 322 325 326 326 326 327 327 327 327 325 322 320 319 320 320 319 318 317 317 318 318 320 321 322 323 323 323 324 326 330 332 334 335 335 335 335 335 336 338 339 339 339 337 334 335 338 340 338 336 338 340 341 341 338 336 336 336 336 336 337 337 338 338 338 338 338 338 337 337 336 336
323 322 321 323 324 326 326 326 327 327 327 327 326 324 322 320 320 321 320 319 317 317 317 318 319 321 321 322 323 323 323 324 326 329 332 334 335 336 336 335 335 336 338 340 340 339 336 334 336 338 337 336 337 340 341 340 339 337 337 336 336 336 337 338 338 338 339 339 338 338 336 335 335 336
325 322 322 324 325 325 325 325 325 325 324 325 325 324 322 322 321 321 321 319 317 317 318 318 318 320 321 321 322 323 323 323 324 326 329 332 334 335 336 336 335 333 335 338 340 340 338 337 336 336 335 335 337 339 340 340 338 337 336 335 336 336 337 338 338 339 339 338 338 336 335 335 336 336
325 323 322 323 323 323 324 323 323 321 321 322 323 321 322 322 321 321 320 318 317 317 317 317 318 319 320 321 322 323 323 323 323 324 326 329 333 335 336 337 336 333 334 338 340 339 339 339 338 337 336 336 337 338 339 338 337 336 334 334 336 337 337 337 338 338 338 337 336 336 336 337 338 338
325 324 322 322 321 323 324 323 321 320 319 320 320 319 321 321 321 321 320 318 317 317 317 318 318 319 320 321 322 323 324 324 324 323 324 327 330 333 336 337 336 334 334 337 340 339 338 338 338 337 337 337 337 337 337 337 337 335 334 335 337 337 337 336 336 336 336 335 335 336 338 339 338 338
324 324 324 322 322 323 323 322 321 320 320 319 319 319 320 321 321 321 320 318 318 317 317 317 318 318 320 321 323 323 324 324 324 324 324 326 328 331 334 336 336 336 335 337 339 339 338 338 338 338 337 338 338 337 336 336 337 336 335 335 337 337 336 335 334 335 336 336 337 338 339 339 338 338
323 324 324 322 322 322 322 322 321 321 320 319 318 319 320 320 320 320 320 319 318 318 317 317 317 318 320 322 323 323 324 324 324 324 324 325 327 329 332 335 337 337 337 337 337 338 338 338 339 338 337 338 338 336 336 336 336 337 336 336 337 338 336 335 335 336 337 337 337 338 338 338 338 338
324 324 323 322 322 322 322 322 322 321 321 319 318 318 319 320 320 320 320 319 319 319 319 317 316 318 321 322 323 324 324 325 325 324 324 325 326 328 331 333 336 338 338 337 337 337 337 339 339 338 338 339 338 337 336 336 336 336 336 336 337 337 337 336 336 337 337 337 337 337 337 337 338 338
323 324 323 323 322 322 323 322 321 320 320 318 318 319 320 320 320 320 321 320 319 320 319 317 317 320 321 322 323 324 326 326 326 325 324 325 326 329 332 334 335 337 339 338 338 338 338 339 340 339 338 338 338 337 337 336 336 336 336 336 336 336 337 337 337 337 337 337 337 337 336 337 337 339
322 323 323 323 323 323 323 322 321 320 320 319 319 320 320 320 319 321 321 320 320 320 318 316 318 319 320 322 323 325 327 328 328 326 326 325 326 328 332 335 335 336 338 338 338 339 339 339 339 340 340 339 339 339 338 337 337 337 337 337 336 335 336 337 338 338 337 337 337 336 336 338 339 339
321 322 322 322 323 323 322 322 321 321 320 320 320 321 320 320 320 321 322 321 320 319 317 316 317 318 319 321 323 325 328 330 330 328 327 325 325 328 331 334 335 336 337 338 338 339 339 340 340 340 341 341 340 339 339 339 338 338 338 338 337 336 336 337 338 339 339 339 338 338 339 340 340 339
320 321 321 321 322 323 322 321 321 321 321 321 322 322 321 321 321 322 322 321 320 318 316 316 317 318 320 321 322 324 328 331 331 330 329 327 325 327 331 334 336 336 337 337 338 339 339 340 341 340 340 341 341 340 339 338 338 338 339 338 338 337 337 337 339 340 340 340 339 340 341 341 341 339
321 320 320 321 322 322 322 321 321 321 321 322 323 323 322 321 321 321 321 320 319 318 316 315 316 318 320 320 321 323 328 332 331 331 330 328 326 327 330 333 336 337 337 337 337 338 339 340 341 340 340 341 341 340 339 339 338 337 338 338 338 338 337 337 338 339 339 340 340 340 340 340 340 339
320 321 320 321 322 322 322 321 320 321 323 323 323 322 321 321 320 320 320 321 319 317 316 315 316 318 319 320 321 322 326 332 333 332 331 329 327 327 329 333 336 337 337 337 337 338 339 340 339 340 340 340 341 341 341 340 338 338 338 338 339 338 337 337 338 339 338 339 339 339 339 340 340 339
320 320 321 322 322 322 322 321 321 322 324 323 322 322 320 320 321 321 321 321 319 317 315 315 314 316 319 320 320 321 324 329 334 334 333 330 328 327 329 332 336 337 337 337 337 338 339 340 339 339 340 340 342 342 343 342 341 339 339 339 339 338 338 338 338 338 338 338 339 340 340 341 341 340
319 320 321 322 322 322 322 321 322 323 323 322 321 321 320 320 321 321 321 321 319 316 316 315 314 316 318 319 320 320 321 326 332 334 332 331 329 328 329 333 336 337 338 338 338 339 339 339 340 340 340 340 342 343 342 342 342 340 339 340 340 339 339 339 338 338 339 340 341 341 342 342 342 341
319 320 321 322 322 322 322 322 322 322 321 320 320 321 320 321 321 321 322 321 319 317 316 316 314 315 317 319 321 320 320 324 331 334 332 331 330 328 329 334 337 337 337 337 338 339 339 339 339 339 339 340 341 342 341 341 342 341 340 339 338 338 339 340 340 340 340 342 342 342 342 343 343 342
320 321 322 322 322 322 322 322 322 321 320 320 320 320 320 321 321 322 322 322 320 317 317 317 314 314 316 318 320 321 320 321 327 333 334 333 331 329 331 335 338 337 337 337 338 338 338 338 338 338 338 339 340 341 341 341 342 342 341 340 340 340 341 341 342 342 342 342 343 343 343 344 344 342
320 321 322 323 323 322 323 322 321 320 320 320 320 320 320 320 321 322 322 322 321 318 317 318 316 315 316 317 319 321 321 319 321 328 333 335 334 333 333 335 336 336 336 337 337 337 337 337 338 338 339 339 339 339 341 341 342 343 342 342 341 341 341 342 342 342 342 343 344 344 344 344 344 342
320 321 322 323 323 322 322 322 321 320 320 320 320 320 320 320 321 321 322 322 322 320 318 318 318 316 315 316 317 319 321 320 319 321 326 332 335 336 335 335 335 335 335 335 335 335 336 337 338 338 338 339 339 340 341 342 342 342 342 343 342 342 341 341 342 342 344 345 345 345 344 343 342 341
320 321 322 322 321 321 321 320 320 319 319 319 319 319 320 320 320 320 321 321 322 321 319 318 318 318 316 315 316 318 319 321 320 319 320 324 329 332 334 335 335 336 336 336 335 335 335 336 337 337 337 337 337 339 340 340 341 341 342 343 343 343 342 342 342 343 344 345 345 344 343 342 341 340
319 320 321 321 320 320 319 319 319 319 319 319 319 319 319 319 318 319 319 320 320 321 321 319 318 318 317 316 316 316 317 319 321 320 319 319 321 324 326 328 330 332 335 337 337 337 336 336 336 337 337 337 337 337 338 338 339 339 340 341 342 343 343 343 343 343 344 344 344 343 342 340 340 340
320 320 320 320 319 319 319 319 319 319 318 318 318 318 318 317 317 317 318 319 319 320 321 320 318 318 318 316 315 316 316 317 319 321 320 319 318 319 321 322 324 326 330 334 337 338 337 337 337 337 337 338 338 338 337 337 337 338 338 338 338 339 341 341 342 343 344 344 344 343 341 340 340 339
319 319 319 319 318 318 318 318 319 318 318 317 317 317 316 316 316 316 317 317 318 318 320 321 320 319 318 317 316 316 315 315 317 320 322 322 320 319 318 319 321 322 325 329 334 337 338 338 338 338 338 338 338 338 338 337 337 337 337 337 336 335 336 339 341 343 343 344 343 343 342 341 340 340
319 318 318 318 318 318 318 318 318 318 317 317 316 315 315 315 315 314 314 315 316 316 318 319 320 320 320 319 319 318 316 315 315 317 320 323 323 321 319 318 318 319 321 324 328 332 335 337 337 338 338 338 337 337 338 338 337 337 337 336 336 336 337 339 341 343 343 343 343 342 342 341 340 340
318 317 318 318 317 317 316 316 316 316 315 314 313 312 312 312 312 312 312 312 313 314 315 317 319 320 320 320 321 320 319 318 316 316 317 320 322 322 321 318 316 317 318 321 324 327 330 334 336 337 337 338 337 337 338 337 336 337 338 337 338 340 341 341 342 342 343 343 343 342 341 341 341 339
317 316 317 316 315 315 314 313 313 312 312 311 310 309 309 309 309 309 309 309 309 310 313 314 317 319 320 320 321 321 320 320 320 319 318 319 320 322 322 320 317 316 316 318 321 324 326 329 331 332 333 334 334 333 335 335 334 335 337 339 341 342 342 342 342 343 343 343 342 342 342 341 340 338
316 315 315 314 312 312 311 311 310 310 309 309 309 308 307 307 307 308 308 307 307 307 309 312 314 317 318 319 320 320 320 321 321 321 321 321 321 322 322 320 317 317 317 316 317 319 322 324 326 327 327 328 328 328 330 332 332 333 336 338 340 340 340 340 342 343 343 342 342 342 341 340 338 337
314 312 311 310 310 309 309 308 308 308 308 307 307 307 306 306 306 306 306 306 306 305 306 308 311 313 315 317 318 319 319 319 319 320 321 322 322 323 322 320 317 317 318 317 316 316 317 319 322 324 325 325 326 326 327 327 327 329 331 333 335 337 339 339 340 342 343 343 342 341 340 338 338 337
311 310 309 308 308 308 307 307 307 306 306 306 306 305 305 305 305 305 305 305 305 305 304 305 307 309 311 313 315 317 317 317 318 319 320 321 322 322 322 322 320 318 318 318 318 317 316 317 319 321 321 322 323 324 324 323 322 323 325 327 330 332 334 335 336 338 339 339 340 340 339 338 338 338
311 310 308 307 307 306 306 305 305 305 305 304 304 303 303 303 303 303 303 303 304 303 303 304 304 305 307 309 311 314 315 315 315 317 318 319 320 321 322 322 323 322 320 319 318 318 317 316 316 317 319 321 322 322 321 321 321 321 322 323 325 327 329 330 332 333 333 334 335 335 336 338 339 338
310 309 307 306 306 306 305 304 304 304 303 301 301 301 300 300 300 300 300 300 300 301 302 302 302 302 303 305 307 310 311 311 312 314 316 317 318 320 321 322 323 323 322 321 319 319 318 318 316 316 317 319 322 323 323 322 321 321 320 321 322 323 324 325 327 329 330 330 331 331 331 334 337 338
308 307 306 306 306 305 303 303 302 302 300 299 299 299 298 298 298 298 297 297 298 299 300 301 301 300 301 302 304 306 307 307 308 310 312 314 316 318 320 321 322 322 322 322 322 321 321 321 319 317 316 317 319 320 321 321 321 320 320 319 320 320 320 322 323 324 324 325 326 327 327 328 331 334
Wind_Speed
10 12 12 12 11 13 15 14 13 14 16 17 18 19 19 19 23 27 31 34 34 34 33 34 36 34 29 27 28 29 30 31 30 28 27 27 28 30 32 34 35 37 37 36 38 37 33 32 34 36 36 36 36 37 37 38 38 38 37 36 36 36 36 36 36 35 35 35 34 33 31 29 28 28
12 13 13 13 13 14 15 13 12 14 15 17 19 20 21 20 20 23 28 33 34 34 34 34 35 37 35 33 32 32 31 31 29 27 26 27 27 28 30 32 34 36 36 34 34 34 33 34 37 38 37 38 37 37 37 37 38 39 38 38 37 36 37 37 36 35 35 34 34 32 31 30 30 29
13 13 13 14 15 16 15 13 12 14 15 17 20 22 23 23 22 22 23 30 34 34 35 37 37 38 38 36 35 34 33 32 31 31 31 31 29 27 28 30 33 36 36 35 34 34 35 37 39 39 39 39 38 38 37 37 38 39 39 39 38 37 37 37 37 36 35 34 34 33 32 31 31 30
14 15 15 16 16 16 16 14 13 14 15 18 20 22 24 24 24 23 22 27 36 37 35 37 39 39 39 38 36 35 35 33 33 34 35 34 32 30 28 28 31 35 37 37 36 36 38 40 39 39 39 40 40 39 38 37 37 38 38 38 38 38 38 37 37 37 36 35 34 34 33 32 32 31
16 17 17 18 17 17 17 16 15 16 16 18 19 21 24 26 25 25 25 28 37 40 38 37 39 39 39 40 37 35 35 34 32 31 33 33 34 33 32 30 29 31 34 36 37 38 40 41 40 39 39 40 41 40 39 37 36 36 36 37 37 37 37 37 37 37 37 36 36 35 33 33 32 31
17 18 18 19 18 18 18 17 16 17 17 18 19 21 24 27 26 25 28 30 36 42 42 40 40 39 38 39 39 35 34 34 32 32 31 32 33 34 34 33 31 31 32 34 36 38 40 40 40 39 39 39 40 41 39 37 36 35 36 37 37 37 37 37 37 37 37 37 37 35 34 33 32 31
17 19 19 19 19 19 19 18 17 18 18 18 19 22 24 27 27 27 29 31 36 42 44 43 42 40 37 37 38 35 34 34 32 32 32 31 33 34 34 35 34 33 33 34 35 37 38 38 38 39 39 39 40 40 40 38 37 36 36 37 38 38 38 38 38 37 38 38 37 36 35 33 32 30
18 19 20 20 20 20 21 20 18 18 18 19 21 23 25 26 28 29 30 32 36 41 45 45 42 41 38 36 35 34 34 34 31 31 31 31 32 34 35 36 36 35 34 34 34 35 36 37 38 39 39 39 40 40 39 38 37 37 36 37 37 38 39 38 38 37 38 38 37 36 35 33 32 30
17 18 20 21 21 22 23 23 21 19 19 21 23 25 26 27 28 30 31 33 36 40 44 45 43 40 38 36 34 31 31 32 30 30 31 30 30 32 34 36 37 36 35 35 34 34 34 35 37 39 39 39 41 41 40 39 38 38 37 37 37 38 38 38 37 37 37 37 37 36 35 33 32 31
17 18 20 22 22 23 24 24 23 21 21 22 24 26 27 27 28 29 30 33 36 40 42 44 44 41 38 37 35 30 28 31 30 30 30 30 30 30 32 34 35 35 36 36 36 37 36 33 34 36 37 38 41 43 42 40 39 39 38 37 37 37 37 36 36 36 36 36 35 35 34 33 32 31
16 17 19 21 21 22 24 25 24 24 23 23 24 26 27 27 26 27 29 33 37 41 43 43 44 42 38 38 37 32 27 28 30 30 31 32 32 30 31 33 34 34 35 37 36 37 35 33 31 32 32 35 39 42 42 41 40 40 38 37 37 37 36 35 35 35 35 35 34 34 34 34 32 31
16 17 18 19 19 21 22 24 25 26 26 25 25 26 27 26 26 26 29 33 37 41 42 43 43 42 39 38 38 35 30 27 28 28 30 33 33 31 31 33 34 34 36 36 35 36 35 33 32 31 31 33 37 40 41 41 41 41 39 38 38 37 36 35 35 35 35 35 35 34 34 33 32 31
16 17 18 18 19 20 22 24 26 27 28 27 26 26 26 26 26 27 29 32 37 41 41 42 43 42 39 39 39 37 34 30 28 27 28 32 34 33 33 34 35 35 35 35 34 35 36 36 35 34 34 33 36 39 40 40 41 41 40 39 38 38 37 36 36 35 35 35 35 34 33 32 31 30
18 19 19 19 18 19 22 24 26 27 28 29 28 27 26 25 25 28 29 31 36 40 40 41 43 42 41 40 39 39 37 35 32 29 27 30 33 33 35 37 37 37 36 35 34 34 35 37 38 39 38 36 36 38 39 40 41 41 40 39 38 37 37 36 36 36 35 34 34 33 32 31 29 28
19 20 20 19 18 19 21 24 26 27 27 28 27 27 26 24 25 28 29 29 34 37 38 40 42 42 43 43 41 40 39 38 36 32 29 30 31 33 35 37 38 38 37 35 35 34 33 35 38 40 40 38 37 39 40 40 40 39 38 38 37 37 36 36 36 35 34 33 33 32 30 28 27 25
20 19 19 19 19 20 22 24 25 24 24 23 23 24 25 25 25 27 26 27 32 36 37 40 42 43 44 44 43 42 41 39 38 36 32 30 31 32 35 38 38 38 37 35 36 36 33 33 36 38 39 39 38 39 39 39 38 38 37 37 36 36 36 36 35 34 33 33 32 30 28 27 25 24
20 18 18 19 19 20 21 22 22 22 21 21 22 23 24 25 26 27 25 26 30 35 39 41 43 45 46 47 46 43 41 40 39 39 36 33 32 32 35 39 38 37 36 35 35 36 35 34 35 37 38 38 38 38 38 38 38 38 37 36 34 34 35 35 35 34 33 33 31 30 28 26 24 23
22 20 19 19 20 20 20 20 20 20 20 21 22 23 24 26 27 27 25 26 31 36 40 44 46 47 46 46 45 41 39 39 40 41 39 36 34 32 32 36 37 36 37 36 35 35 35 34 34 36 36 36 36 37 37 36 36 37 37 35 33 33 33 33 33 33 33 32 31 29 27 26 25 24
21 20 19 19 19 20 20 20 20 20 21 22 24 25 26 27 29 29 27 28 32 35 41 46 48 48 48 46 44 41 39 39 40 41 40 36 35 34 32 34 35 36 36 36 36 37 36 34 35 35 35 34 35 36 36 36 36 36 36 35 33 32 32 32 32 32 32 32 32 30 29 28 28 27
19 18 18 18 19 20 21 22 22 22 23 23 25 27 28 29 31 31 29 30 32 35 41 48 49 49 50 48 44 40 37 37 39 40 39 37 35 35 34 34 34 34 35 36 37 38 37 35 36 36 34 33 34 34 34 35 36 37 37 36 34 32 32 31 31 31 31 32 33 32 31 31 30 29
19 19 19 19 20 20 21 23 24 22 23 25 27 29 29 30 32 32 31 31 34 37 42 48 49 48 50 48 43 38 32 34 38 41 42 40 36 33 34 35 34 33 34 36 36 36 36 35 36 36 33 32 33 34 34 35 36 37 37 37 35 34 32 32 32 32 32 33 33 33 32 31 31 31
20 19 20 20 20 19 21 24 24 23 24 27 28 28 28 30 32 33 32 33 37 40 45 49 49 48 49 47 42 35 27 30 37 43 47 43 38 36 35 35 34 33 34 36 35 35 36 36 36 35 33 32 34 34 34 34 35 37 37 37 36 35 33 33 33 33 33 33 33 33 33 32 33 33
19 19 20 20 18 18 20 22 23 24 26 27 27 27 28 30 33 33 33 34 37 41 46 50 50 50 51 48 43 35 23 23 31 39 45 44 42 42 38 34 33 33 33 34 34 34 35 35 36 36 32 32 34 34 33 33 34 36 38 38 37 35 34 33 33 33 34 34 34 33 34 34 35 34
19 18 18 18 16 16 19 21 23 24 26 26 26 26 27 30 32 32 32 32 34 37 43 49 50 51 51 50 46 39 23 16 21 30 40 45 44 44 41 36 33 33 32 31 30 32 33 33 35 36 34 32 33 32 32 32 33 34 37 38 38 37 35 34 34 33 33 34 34 35 36 36 36 36
18 18 17 16 15 15 18 20 22 23 24 25 25 26 27 28 30 29 27 28 29 33 40 47 50 51 52 52 49 42 25 12 14 22 34 43 45 45 45 39 34 34 34 31 28 29 30 31 32 33 33 33 31 29 28 28 30 33 35 36 37 37 36 35 34 34 34 35 36 37 37 37 36 35
19 19 18 15 14 14 17 19 20 21 22 23 24 26 26 27 27 24 24 26 27 31 39 46 50 52 53 53 52 47 30 12 11 16 24 36 43 46 47 41 35 35 35 31 29 28 28 29 30 30 30 31 30 29 27 26 28 30 33 35 36 36 35 35 35 34 35 36 37 37 37 36 35 33
19 18 17 15 14 15 16 18 19 20 21 22 24 25 25 25 24 22 22 24 25 30 39 45 49 52 53 53 53 50 39 19 8 11 14 26 38 44 46 41 34 32 32 29 28 28 27 27 28 28 29 29 29 29 28 28 28 29 30 33 35 35 35 36 36 36 36 36 37 37 37 36 34 32
18 18 16 15 14 15 16 17 18 19 20 22 23 22 22 23 22 21 22 22 23 29 36 43 48 50 51 52 51 49 46 29 6 9 11 16 29 38 43 40 32 30 29 27 27 28 27 26 26 26 27 28 29 30 29 29 30 30 30 30 31 33 35 36 37 38 37 36 36 37 37 36 33 31
16 16 15 13 13 14 16 16 17 19 20 21 20 19 20 21 20 20 21 21 22 27 32 38 46 49 48 49 48 48 48 36 9 8 9 10 19 30 37 36 30 30 30 27 26 26 25 24 25 24 26 28 29 30 30 31 31 31 31 32 32 32 33 34 36 36 36 36 36 37 37 36 33 31
14 13 11 11 12 14 14 15 17 20 19 17 16 16 17 18 18 19 21 21 20 24 28 33 41 46 46 46 47 48 52 47 26 4 10 11 13 23 34 35 30 29 29 27 25 24 23 23 23 24 26 27 26 27 29 30 32 32 31 32 32 31 30 31 33 35 35 35 35 36 36 36 34 32
10 9 8 9 11 12 14 16 17 17 14 12 12 14 15 16 18 19 20 20 19 20 23 28 34 41 45 45 46 48 51 52 44 23 5 14 17 21 29 33 32 32 31 29 28 27 25 24 24 24 25 24 24 26 28 28 30 31 31 30 31 32 31 30 31 32 34 34 33 34 36 35 34 32
9 9 9 9 10 12 14 15 13 10 8 8 10 12 13 15 18 19 19 21 20 18 20 23 28 35 41 44 46 47 48 50 50 42 24 6 15 21 26 29 31 32 32 32 32 32 29 28 27 26 25 25 24 24 24 24 26 28 29 29 30 31 31 30 29 29 30 30 31 32 33 33 32 32
10 10 11 11 10 10 10 9 7 6 6 7 9 12 14 16 19 20 21 23 23 20 18 21 24 29 35 40 43 45 46 47 48 47 42 28 12 7 14 20 25 29 32 32 32 34 34 33 30 28 27 26 24 21 21 20 21 22 24 27 28 28 28 28 27 27 27 29 30 30 30 30 30 31
11 10 10 9 8 7 5 5 6 7 8 10 11 14 16 17 18 19 20 22 24 22 19 19 21 24 29 35 39 42 45 45 45 44 44 41 35 26 16 8 5 13 24 29 30 31 33 33 32 29 28 27 26 24 23 22 20 21 23 25 26 27 27 28 28 28 29 30 29 28 27 28 29 29
9 8 7 6 6 5 4 5 7 10 12 14 15 15 15 16 17 18 18 20 22 22 21 19 19 20 24 28 33 38 41 42 43 42 42 42 42 39 34 29 24 15 5 17 25 27 28 29 30 29 28 27 26 25 24 24 24 24 25 27 28 28 28 29 29 29 30 30 29 27 27 27 26 25
7 6 5 4 3 3 4 6 8 10 12 14 14 14 14 15 16 16 18 19 20 21 21 20 18 18 19 22 26 30 35 38 40 40 40 40 42 41 40 37 34 31 24 11 11 20 25 29 31 32 31 29 27 26 25 26 27 27 27 30 32 32 31 31 31 31 32 31 30 29 28 27 26 24
5 5 4 3 3 5 6 6 6 7 8 9 11 12 12 13 14 15 17 18 18 19 20 19 18 18 17 18 19 23 27 31 35 37 38 38 38 39 40 40 38 36 34 28 17 9 15 24 29 31 32 31 29 27 25 24 25 26 28 30 32 34 34 33 33 34 34 33 32 29 27 27 25 23
4 4 4 5 5 5 5 4 3 3 4 6 8 9 10 11 12 14 15 16 18 19 19 19 18 17 17 18 19 20 22 23 26 31 34 35 35 35 35 37 38 37 36 33 29 24 15 14 18 20 25 30 30 27 25 22 19 20 23 26 30 33 33 33 34 35 35 33 30 27 26 26 23 19
3 3 3 4 4 3 3 3 2 3 4 5 7 9 10 11 12 13 15 16 18 18 19 19 18 16 16 18 18 19 20 21 21 24 26 28 30 30 29 32 35 37 38 36 34 33 29 22 17 14 13 17 18 19 20 18 13 12 17 21 24 27 30 31 33 34 34 32 29 28 28 27 21 16
3 2 2 2 2 3 4 4 4 4 5 6 7 9 10 11 12 14 15 16 17 17 18 18 18 17 17 17 17 18 19 20 20 21 22 22 24 25 25 27 31 33 35 37 36 34 32 29 25 23 20 18 18 18 17 16 13 9 12 15 16 19 24 28 32 33 32 31 31 32 31 28 22 20
4 3 2 2 1 2 4 4 5 5 5 6 8 9 11 12 13 14 15 16 16 16 16 16 17 17 17 18 17 17 18 20 20 20 20 20 21 22 22 23 27 29 30 32 34 33 31 27 23 22 24 24 24 25 24 22 19 14 11 8 6 8 16 24 30 33 33 32 32 33 32 29 26 24
4 3 2 1 1 3 4 6 7 7 8 9 10 11 12 13 13 14 14 14 14 14 14 13 14 16 17 17 17 17 17 19 20 20 20 19 19 19 20 21 23 24 25 26 27 28 28 26 22 21 23 25 27 29 30 28 24 24 25 23 18 13 9 11 16 19 22 25 29 32 33 32 30 28
3 2 3 3 3 5 6 8 9 10 11 11 11 11 12 13 13 13 13 13 12 12 12 11 12 13 15 16 16 15 16 18 19 19 20 20 18 17 18 18 18 19 20 21 21 22 24 26 26 24 23 24 25 28 29 26 24 25 28 29 27 25 21 17 14 10 5 6 11 17 25 33 36 34
4 4 4 4 5 6 8 10 11 12 12 12 12 12 11 11 12 11 11 11 10 10 10 10 10 12 14 15 14 13 14 16 17 17 18 19 19 17 16 16 16 16 15 16 17 17 18 20 23 25 26 25 24 23 24 23 22 23 25 26 27 28 27 26 24 22 20 17 15 11 6 15 29 35
5 5 5 5 6 7 8 10 12 13 12 11 11 11 10 9 10 9 9 10 10 9 9 9 10 12 14 15 14 13 13 14 15 16 16 17 17 17 16 15 15 16 16 15 15 14 13 14 16 20 23 24 23 22 21 20 18 18 20 21 22 22 22 23 25 27 29 30 28 24 23 20 16 20
Wind_Direction
317 323 328 331 330 325 324 325 328 337 343 347 347 345 342 334 324 320 317 313 312 311 310 306 301 299 297 292 287 283 281 280 278 275 274 271 269 266 262 260 251 242 240 241 239 239 242 245 247 247 246 246 246 245 245 244 246 249 250 250 250 251 253 255 256 255 254 254 255 257 258 258 258 258
308 315 321 325 326 324 322 318 322 333 341 346 351 351 350 346 334 323 315 310 310 311 310 308 303 300 297 292 289 286 281 278 276 272 271 270 269 267 264 260 253 244 239 237 236 238 242 246 249 250 249 247 246 244 244 244 245 247 249 250 250 250 251 253 254 254 254 253 254 255 256 256 257 258
306 308 311 316 321 322 318 313 315 326 334 340 348 352 354 354 345 334 321 311 311 313 310 307 306 303 300 294 289 286 280 274 270 265 266 268 266 264 262 258 250 243 237 235 235 238 242 245 248 250 250 248 247 244 242 243 245 246 247 249 250 249 249 250 251 252 252 252 252 253 254 255 257 258
302 301 302 307 316 319 314 309 311 320 326 334 344 350 351 353 350 343 333 317 315 317 313 310 309 307 305 297 289 285 281 275 270 264 263 264 263 260 259 255 247 241 238 237 238 240 242 245 247 248 248 247 246 244 241 242 244 245 246 247 248 249 249 249 249 250 251 251 251 251 253 255 257 258
296 298 299 302 309 313 310 308 309 317 325 332 341 347 346 347 350 347 340 329 323 322 319 315 310 309 308 302 293 287 283 279 273 267 263 261 259 257 256 253 246 239 237 239 240 241 243 244 245 246 247 246 244 242 240 240 241 243 244 246 247 248 248 248 249 249 249 249 250 250 252 254 255 256
292 295 297 300 303 306 306 304 303 311 322 331 338 343 342 342 345 346 342 336 329 325 324 321 316 312 311 306 298 290 283 279 275 270 267 263 257 254 253 251 246 240 238 239 241 242 242 243 244 245 245 245 242 238 237 239 239 240 242 245 246 248 248 249 249 248 248 248 248 249 251 253 253 255
290 292 296 299 301 302 302 300 297 303 315 325 332 336 337 338 340 342 342 339 334 327 325 325 322 317 312 306 302 294 283 279 277 270 267 264 258 253 250 249 246 243 243 242 241 242 242 242 244 244 243 243 240 236 235 237 238 239 241 244 246 247 248 249 249 248 247 247 248 249 251 252 252 254
290 291 294 298 300 300 300 299 294 297 309 318 324 328 331 334 336 338 340 340 337 330 326 325 325 320 312 306 304 299 286 278 275 270 266 263 258 252 248 247 246 244 246 246 244 244 244 243 243 243 243 242 239 235 235 236 237 238 239 242 244 246 247 248 248 247 246 246 247 249 250 250 252 253
291 291 293 296 298 297 297 298 295 293 302 312 318 323 326 328 331 335 339 340 338 333 328 326 326 321 313 307 305 298 285 276 271 268 265 262 258 254 249 247 246 245 246 247 245 245 246 245 244 243 243 241 237 235 235 236 236 236 237 240 243 244 245 246 246 245 244 245 246 248 249 250 252 251
294 292 292 294 295 293 294 296 295 292 296 307 316 320 322 324 327 333 339 340 338 335 331 327 326 322 315 310 307 299 285 276 272 267 263 260 259 256 252 248 245 243 244 246 246 245 246 247 244 241 240 241 237 234 235 235 234 235 236 238 241 241 242 243 243 242 241 243 245 246 248 250 250 249
304 301 298 295 294 293 294 295 296 293 293 301 312 318 319 321 324 330 336 338 337 335 331 328 326 323 317 311 309 303 288 277 273 269 262 259 257 256 252 248 244 241 242 246 247 245 245 245 244 241 242 243 238 234 233 233 233 233 235 237 238 238 239 239 239 240 240 242 243 245 247 247 246 246
316 315 311 304 299 297 296 297 297 297 294 296 306 315 316 317 320 324 330 333 335 333 330 327 326 324 319 313 310 308 297 282 277 274 265 259 256 254 250 247 244 243 245 248 248 246 243 241 240 239 242 244 238 232 231 232 232 233 235 236 236 236 237 238 239 240 240 241 243 244 243 242 243 245
315 317 315 310 303 299 300 300 299 298 296 295 299 308 313 313 314 318 322 328 332 332 329 326 325 323 320 315 311 310 304 292 284 281 272 263 257 255 253 250 247 247 249 251 252 248 242 238 236 236 241 243 236 230 229 231 231 232 234 235 236 236 237 238 239 240 240 241 240 239 238 239 241 243
308 312 314 311 304 298 297 296 296 297 295 293 294 301 306 308 311 316 318 323 329 330 327 325 323 320 318 316 311 307 304 298 288 280 275 270 262 256 255 254 250 249 251 252 253 249 242 238 236 237 241 243 237 230 229 229 230 230 232 234 235 236 237 238 238 238 238 236 235 234 235 236 237 239
302 310 314 312 307 302 298 297 298 300 299 296 296 299 301 304 310 315 316 321 328 329 327 325 323 318 315 315 311 305 302 299 292 282 276 273 266 257 254 253 250 248 247 248 249 247 242 239 238 238 240 241 237 232 229 229 229 229 231 233 234 235 236 236 236 235 233 232 232 232 231 231 232 235
296 307 313 312 313 314 311 308 305 303 303 301 298 299 300 303 309 312 314 320 327 330 329 326 323 318 315 312 309 302 298 296 292 285 277 270 265 259 253 250 249 247 245 245 246 246 243 241 241 240 238 238 236 233 230 228 228 230 231 232 233 235 235 234 233 232 231 230 229 227 225 226 230 234
292 301 308 313 318 321 319 316 310 306 307 305 300 300 301 304 308 311 313 317 324 331 333 327 321 319 316 310 305 300 294 290 285 281 275 266 262 261 255 249 249 249 247 244 244 246 245 242 242 241 238 236 235 233 231 229 229 230 231 231 232 234 234 233 231 230 229 227 224 221 222 225 229 235
289 292 301 311 319 320 320 320 318 314 310 306 304 305 306 308 311 311 313 318 325 332 335 329 323 321 318 312 307 300 291 282 275 271 270 264 259 259 258 254 251 250 248 245 244 247 247 243 242 242 238 236 236 234 231 230 230 230 230 230 231 232 232 231 230 228 226 224 219 219 223 228 232 237
286 287 296 309 316 317 320 323 322 317 312 308 308 310 311 312 312 310 311 319 327 333 334 330 326 323 321 317 311 302 291 280 269 263 263 261 256 254 257 257 252 247 246 245 243 246 248 245 243 241 238 237 238 236 234 232 231 230 229 229 229 231 231 230 228 227 225 222 220 223 228 234 237 241
287 289 297 306 311 314 319 323 321 315 312 312 313 314 315 313 313 311 310 316 325 329 329 328 327 326 326 323 314 305 292 276 264 258 257 256 251 249 252 254 250 245 243 241 240 243 246 244 242 242 240 239 239 239 238 236 234 232 230 229 229 230 231 230 229 227 226 224 225 229 235 239 241 243
290 293 298 304 307 310 315 321 320 316 315 317 317 316 314 313 314 315 312 314 321 325 326 328 330 332 334 329 320 311 292 267 254 248 246 245 242 240 244 247 247 244 241 238 238 240 242 240 240 242 243 242 242 242 241 239 236 233 231 231 231 232 231 231 231 230 229 228 230 234 238 240 242 245
291 293 297 301 305 308 313 317 319 320 320 319 317 315 314 315 316 318 316 316 321 326 329 331 333 337 340 336 330 323 298 262 247 239 236 236 233 230 233 239 243 243 240 238 237 238 240 237 236 240 242 242 243 243 241 240 238 235 234 233 233 233 232 232 233 232 231 231 233 236 239 240 243 246
295 295 297 301 304 308 310 314 318 320 319 317 317 315 316 317 317 319 319 319 323 330 334 336 338 341 343 342 341 338 312 263 246 238 234 231 228 224 224 230 237 238 237 237 235 236 239 235 230 233 237 238 241 240 237 238 238 237 237 236 235 235 234 233 233 232 232 233 235 238 240 241 243 247
301 300 300 303 307 307 308 313 318 319 316 315 317 318 319 320 320 322 323 322 327 334 338 339 342 346 347 346 348 349 334 278 249 239 232 229 225 221 219 221 229 233 234 233 231 232 236 232 228 232 235 237 240 239 235 235 236 236 236 236 236 237 236 236 234 232 232 234 236 238 239 240 243 246
303 305 306 307 307 305 308 315 318 315 312 314 319 321 323 325 327 329 328 323 327 337 342 344 348 351 351 351 353 356 350 309 262 242 232 227 223 219 217 217 223 230 232 232 232 232 231 227 227 231 234 236 238 240 239 238 237 236 235 236 237 237 237 237 236 235 235 235 237 238 239 241 244 248
302 305 307 307 305 306 312 316 313 308 308 314 320 322 324 328 332 333 328 322 327 342 350 350 352 354 354 354 357 360 358 331 265 250 236 228 224 219 215 213 217 226 230 230 230 230 226 225 227 229 231 234 236 238 240 240 239 237 236 236 237 237 236 237 237 238 238 239 240 241 242 245 248 251
302 303 304 306 307 310 312 312 306 303 307 314 318 321 324 329 332 332 327 325 333 350 357 355 355 357 358 358 0 2 2 354 284 259 251 231 226 222 215 210 214 226 232 230 227 225 223 225 229 231 232 233 233 232 234 237 238 238 236 236 237 237 236 237 237 238 240 242 243 243 245 246 248 250
300 299 302 306 310 310 310 308 304 304 311 316 318 321 326 329 331 331 329 330 341 356 3 0 357 358 1 2 3 4 5 6 333 258 268 238 225 222 215 209 212 224 230 227 225 225 225 224 226 230 234 236 233 229 230 233 236 239 238 237 238 238 237 237 237 238 239 241 242 243 245 245 246 248
299 300 304 308 307 305 306 307 306 309 315 319 319 323 328 329 333 337 334 334 345 358 5 5 0 360 3 4 5 7 10 16 30 217 245 239 224 219 211 207 212 222 226 225 223 224 227 229 230 233 237 239 236 233 233 234 235 237 240 241 241 240 239 237 236 236 237 238 240 243 244 243 245 248
304 304 304 299 296 300 305 308 311 315 319 321 324 330 331 331 338 345 342 341 348 356 4 7 4 2 3 5 8 12 16 22 32 86 198 205 211 211 207 205 211 220 224 224 222 222 226 231 233 235 237 239 239 237 238 238 236 235 237 240 241 240 238 236 235 236 237 238 241 242 243 243 246 247
308 304 297 290 291 298 302 305 311 316 321 325 333 340 340 340 348 353 350 350 352 354 0 6 6 5 5 6 10 16 20 23 28 38 123 185 192 200 206 211 218 223 224 225 226 227 229 230 231 234 236 238 241 242 239 237 236 235 232 233 237 238 238 237 238 238 238 239 240 241 242 244 245 242
309 299 293 290 292 293 297 304 312 323 334 343 351 356 355 358 2 2 360 0 358 353 355 3 7 8 8 8 11 16 20 24 28 33 43 105 187 198 207 216 224 228 229 229 230 231 229 227 230 234 235 236 241 243 237 231 232 233 230 228 232 236 239 240 241 239 236 234 236 239 242 243 241 236
302 299 299 302 306 308 310 317 327 346 7 16 16 9 4 5 7 5 4 6 4 358 355 360 5 11 13 11 11 14 19 23 28 32 37 44 65 157 197 211 220 226 228 228 229 230 229 228 228 231 235 237 237 239 236 230 229 231 229 227 229 232 237 241 243 240 235 233 236 239 240 238 236 234
305 308 311 318 330 340 347 354 359 7 12 10 6 3 360 360 2 2 3 6 5 2 1 360 1 10 17 17 14 15 17 21 25 29 34 38 44 52 62 83 160 209 216 215 214 215 220 224 225 224 228 231 231 231 234 235 235 236 236 234 233 233 236 239 242 241 237 236 238 239 237 234 233 233
317 322 329 340 357 12 21 15 4 359 357 354 354 358 359 357 357 358 1 3 3 2 4 3 0 7 17 21 21 20 19 19 22 25 29 34 38 42 46 48 51 59 139 201 205 204 207 216 220 219 218 221 223 226 231 238 242 243 243 240 239 238 238 238 241 241 237 235 236 237 236 236 237 238
330 338 346 357 12 11 0 356 350 344 344 346 349 354 357 356 357 0 2 3 1 1 5 7 5 7 15 22 24 24 23 21 20 20 23 28 32 35 38 42 44 46 54 84 182 203 207 212 217 219 218 218 220 223 228 235 240 242 242 242 241 241 241 239 239 238 235 233 233 234 234 236 240 242
322 331 337 337 339 332 330 337 340 336 336 340 344 352 358 0 2 5 5 4 2 2 5 8 11 14 16 18 21 24 26 26 23 19 19 23 27 28 31 36 39 40 44 56 79 137 190 200 204 209 214 216 218 218 219 226 234 238 241 244 244 245 243 239 235 234 232 230 230 232 235 239 243 244
312 318 317 316 321 322 324 332 334 329 337 347 353 0 7 8 8 6 5 5 6 6 5 6 9 15 20 21 23 26 28 28 28 25 21 21 24 26 26 30 36 38 39 46 59 72 96 153 176 188 200 207 208 207 207 211 222 233 239 240 239 239 238 233 230 228 226 224 227 232 235 237 240 241
306 303 296 304 320 328 333 346 353 348 355 4 5 4 7 11 11 6 2 4 7 8 9 9 9 13 22 27 30 33 32 29 29 30 26 21 22 24 25 26 31 35 38 40 47 56 66 81 97 112 143 168 174 179 186 187 189 212 229 229 226 225 226 225 225 224 221 221 225 228 229 229 227 222
265 248 244 269 317 338 338 342 355 359 0 5 5 1 0 4 6 2 358 358 0 3 8 13 15 16 20 24 28 33 34 31 28 29 30 27 24 24 29 31 30 30 35 39 40 43 51 60 68 75 86 99 109 120 135 139 138 170 212 221 221 220 219 220 222 223 222 223 224 222 219 216 209 205
209 204 221 261 316 347 347 350 353 352 352 354 352 348 348 352 354 354 351 350 353 358 4 10 17 22 24 24 24 28 32 32 28 25 27 30 29 27 32 39 37 30 32 39 41 41 44 52 63 73 79 85 92 94 93 89 86 91 107 123 151 199 211 214 217 218 219 222 223 220 216 211 205 201
207 206 225 271 325 337 337 339 336 332 334 338 336 334 337 340 340 340 340 340 343 351 359 6 15 24 29 27 25 25 30 32 30 26 26 29 31 29 28 35 40 39 36 38 40 41 43 50 60 68 72 75 78 78 75 71 69 71 76 82 87 101 137 179 197 206 213 215 213 211 209 207 203 198
241 242 256 282 305 319 325 324 322 325 328 329 329 331 332 332 332 330 331 333 336 342 353 6 17 25 30 31 26 24 29 32 31 28 27 28 31 35 31 29 34 42 45 44 41 36 37 44 52 58 63 66 68 71 72 71 69 71 72 74 78 82 86 93 102 108 132 186 196 200 204 204 201 197
261 260 267 281 297 311 319 319 319 325 328 327 331 337 337 336 336 335 338 346 350 350 356 7 17 27 31 30 26 24 28 32 32 30 29 29 32 39 42 38 37 40 46 49 48 41 36 39 45 52 59 63 64 66 70 71 70 72 73 73 74 75 76 80 87 90 87 81 74 70 112 183 192 194
271 266 266 280 299 311 317 317 317 323 328 330 337 347 350 351 352 350 356 7 8 5 8 13 19 30 34 31 26 27 30 32 34 33 32 31 32 36 44 49 49 46 46 48 51 51 47 43 44 50 56 59 60 60 63 66 69 70 69 68 67 66 67 70 75 79 81 81 78 73 68 76 113 153